Location: Winthrop
(48.4780°N, 120.1850°W)
Time: 23:10:35
(UTC-07:00)

S-56A Canister/Altair - Pass Details

Date: 10 June 2023
Orbit: 640 x 2489 km, 38.9° (Epoch: 29 September)

Event Time Altitude Azimuth Distance (km) Brightness Sun altitude
Rises 03:07:51 0° 280° (W) 6,102 11.9 -13.0°
Reaches altitude 10° 03:13:32 10° 266° (W) 5,152 11.4 -12.5°
Maximum altitude 03:22:23 19° 229° (SW) 4,345 10.7 -11.8°
Drops below altitude 10° 03:30:42 10° 191° (S) 4,755 11.0 -11.0°
Sets 03:35:41 0° 175° (S) 5,485 11.4 -10.5°
